www.pogodaiklimat.ru

Погода и климат >> Архив погоды >> Россия >> Красноярский край >> Балахта


ПОГОДА в Балахте

  • Прогноз погоды в Балахте
  • Монитор погоды в Балахте

АРХИВ ПОГОДЫ в Балахте

Время (UTC), дата Ветер
(напр.,м/с)
 
Видим.   Явления Облачность Т
(С)
Тd
(С)
f
(%)
Тe
(С)
Тes
(С)
Комфортность P
(гПа)
Po
(гПа)
Тmin
(С)
Tmax
(С)
R
(мм)
R24
(мм)
S
(см)
15 12.08 ЮЗ 1 50 км {ливн. осадки} 3/3 1000 м
[Sc]
+11.2 +10.6 96 +11 +11 1013.6 975.5
18 12.08 В 2 500 м туман {ливн. осадки} ?/? +7.9 +7.5 97 +6 +6 1014.0 795.3
21 12.08 В 1 200 м туман ?/? +6.9 +6.6 98 +6 +6 1013.6 974.9
00 13.08 штиль 0 50 м туман ?/? +8.3 +8.0 98 +7 +7 1013.1 974.6 +6.8 0.0
03 13.08 З 1 20 км в посл. час туман 8/8 1000 м
[Sc]
+11.1 +10.8 98 +11 +13 1012.8 974.7
06 13.08 З 2 50 км {туман} 6/6 1000 м
[]
+18.0 +7.9 52 +19 +24 1011.0 973.7
09 13.08 СЗ 3 50 км 4/4 1000 м
[Cu med, cong]
+19.3 +6.7 44 +20 +24 1010.3 973.2
12 13.08 С 3 50 км ясно +18.5 +8.7 53 +19 +20 1010.3 973.2 +19.6
15 13.08 В 1 50 км 6/0
[Ci sp]
+11.2 +9.9 92 +11 +11 1011.6 973.5
18 13.08 В 1 50 км 4/0
[Ci sp]
+7.5 +7.1 97 +6 +6 1011.9 973.3
21 13.08 В 1 500 м туман ?/? +5.4 +5.1 98 +4 +4 1012.5 973.5
00 14.08 штиль 0 200 м туман ?/? +6.6 +6.3 98 +5 +5 1012.7 974.0 +5.1
03 14.08 СЗ 1 20 км {туман} 6/6 600 м
[Cb cap]
+13.9 +12.2 89 +14 +18 1012.3 974.5
06 14.08 {ливн. осадки, морось} н/о
09 14.08 В 3 20 км 9/9 600 м
[Cb cap]
+18.4 +9.8 57 +19 +19 1012.4 975.2
12 14.08 В 3 20 км 6/6 600 м
[Cb cap]
+17.5 +9.7 60 +18 +18 1012.7 975.4 +19.6
15 14.08 В 2 20 км 3/0
[Ci sp]
+11.5 +9.5 88 +10 +10 1013.6 975.5
18 14.08 В 1 20 км 4/0
[Ci sp]
+11.5 +10.1 91 +11 +11 1013.7 975.6
21 14.08 В 2 20 км 3/0
[Ci fib]
+11.1 +10.0 93 +10 +10 1013.6 975.3
00 15.08 СВ 2 50 км 8/0
[Ac und]
+12.5 +11.2 92 +12 +12 1012.3 974.4 +10.3
03 15.08 В 3 20 км 8/0
[Ac und]
+17.9 +12.7 72 +18 +21 1010.6 973.5
06 15.08 ЮВ 2 20 км 3/0
[Ac lent]
+22.2 +13.1 56 +25 +34 комфорт 1009.4 972.9
09 15.08 В 2 10 км 9/0
[Ac und Ci sp]
+23.9 +12.7 49 +26 +30 жарко 1008.8 972.5
12 15.08 В 2 10 км дым 9/0
[Ac lent Ci sp]
+21.7 +13.9 61 +25 +25 комфорт 1000.9 972.5 +24.2
15 15.08 В 2 20 км 4/0
[Ci sp]
+16.5 +13.3 81 +17 +17 1011.3 973.9
18 15.08 В 2 20 км ясно +14.7 +12.0 84 +14 +14 1010.2 972.6
21 15.08 штиль 0 н/о н/о +11.2 +10.7 97 +10 +10 1009.6 971.6
00 16.08 З 1 20 км 9/0
[Ac lent Ci sp]
+10.5 +10.1 97 +10 +11 1009.3 971.2 +9.9
03 16.08 В 2 20 км 8/0
[Cs]
+18.3 +12.9 71 +19 +26 1007.4 970.4
06 16.08 В 3 20 км 8/0
[Ci sp]
+23.0 +14.2 58 +27 +35 душно 1005.8 969.5
09 16.08 В 3 20 км 8/4 1000 м
[Cu hum Ci fib]
+24.3 +13.1 50 +26 +29 жарко 1005.4 969.2
12 16.08 СВ 1 50 км 10/0
[Ac As]
+21.5 +14.8 66 +25 +25 комфорт 1006.2 969.6 +25.0
15 16.08 В 1 50 км 10/10 1000 м
[Sc]
+17.8 +13.8 77 +19 +19 1007.2 970.2
18 16.08 З 1 50 км 10/10 1000 м
[Sc]
+16.2 +13.4 83 +17 +17 1007.8 970.6
21 16.08 В 1 50 км 10/0
[Ac As]
+13.3 +12.8 97 +13 +13 1009.0 971.3
00 17.08 штиль 0 10 км туман на расстоянии 8/0
[Ac lent Ci sp]
+12.3 +11.8 97 +12 +12 1010.2 972.4 +11.9
03 17.08 В 2 10 км дым 8/0
[Cs]
+19.9 +14.0 69 +22 +29 комфорт 1010.3 973.4
06 17.08 В 2 10 км дым 9/9 600 м
[Cb cap]
+22.4 +13.5 57 +25 +27 комфорт 1010.0 973.4
09 17.08 СВ 2 10 км дым 8/8 600 м
[Cb cap]
+24.6 +12.4 47 +26 +28 жарко 1009.8 973.4
12 17.08 В 4 10 км дым 9/9 600 м
[Cb cap]
+21.5 +13.6 61 +24 +24 комфорт 1010.9 974.1 +25.4
15 17.08 ЮВ 1 4000 м дымка {гроза, ливн. осадки} 8/8 600 м
[Cb cap]
+15.0 +12.8 87 +15 +15 1013.1 975.5
18 17.08 В 1 4000 м дымка {гроза, ливн. осадки} 3/0
[Ci sp]
+11.3 +10.8 97 +11 +11 1013.9 975.8
21 17.08 штиль 0 500 м туман ?/? +8.4 +8.0 97 +7 +7 1013.9 975.4
00 18.08 штиль 0 200 м туман ?/? +8.2 +7.9 98 +7 +7 1014.3 975.6 +7.5 0.0
03 18.08 С 1 1000 м дымка {туман} 9/9 1000 м
[Cu Sc]
+15.5 +14.5 94 +16 +17 1013.1 975.5
06 18.08 СВ 1 4000 м дым {туман} 6/6 1000 м
[Cu med, cong]
+21.5 +14.0 62 +24 +30 комфорт 1011.2 974.4
09 18.08 В 3 20 км гроза без осадков {ливн. осадки} 8/8 600 м
[Cb cap]
+20.6 +12.3 59 +23 +24 комфорт 1010.3 973.4
12 18.08 В 1 20 км {гроза, ливн. осадки} 9/9 600 м
[Cb cap]
+18.3 +12.7 70 +20 +20 1011.4 974.3 +22.9 0.4
15 18.08 ЮВ 1 20 км 3/0
[Ci sp]
+11.7 +10.7 94 +11 +11 1014.1 976.0
18 18.08 В 1 4000 м дымка 4/4 1000 м
[Sc]
+7.9 +7.5 97 +7 +7 1015.3 976.6
21 18.08 ЮВ 1 200 м туман ?/? +7.4 +7.1 98 +6 +6 1016.0 977.1
00 19.08 В 1 200 м туман ?/? +8.5 +8.2 98 +8 +8 1016.9 978.3 +6.4
03 19.08 С 1 200 м туман ясно +12.5 +12.2 98 +12 +21 1016.8 978.7
06 19.08 З 1 20 км {туман} 6/6 1000 м
[Cu med, cong]
+19.8 +11.1 57 +22 +28 комфорт 1015.8 978.6
09 19.08 З 2 20 км 8/0 1000 м
[Ci sp]
+21.9 +10.5 48
12 19.08 Ю 1 20 км 10/0
[Cs]
+20.5 +11.4 56 +23 +24 комфорт 1015.0 978.0 +22.1

 

Местоположение метеостанции Балахта (Красноярский край, Россия): широта 55.38 долгота 91.67 высота над уровнем моря 321 м.

В архиве по умолчанию представлена погода в Балахте за последнюю неделю. Архивные данные за месяц целиком и за предыдущие месяцы, начиная с января 2011 года, Вы можете получить, выбрав интересующий диапазон дат из раскрывающегося списка и нажав кнопку "Ввод!".


*Определитесь, кто Вы:
робот инопланетянин человек

Внимание! Время в таблицах - всемирное. Для получения местного времени необходимо прибавить поправку, которая равна 7 ч.

Смотрите также архив погоды в соседних городах и на ближайших метеорологических станциях:

Погода в Светлолобово (Красноярский край, Россия) (62 км)
Погода в Шумихе (Красноярский край, Россия) (75 км)
Погода в Кемчуге (Красноярский край, Россия) (80 км)
Погода в Каче (Красноярский край, Россия) (89 км)
Погода в Роевом Ручье (Красноярский край, Россия) (93 км)
Погода в Красноярске (Красноярский край, Россия) (99 км)
Погода в Минино (Красноярский край, Россия) (101 км)
Погода в Емельяново (Красноярский край, Россия) (102 км)
Погода в Первомайском (Хакасия, Россия) (103 км)
Погода в Назарово (Красноярский край, Россия) (111 км)

Пояснения к столбцам:

Ветер - указаны скорость ветра в м/с - средняя за 10 мин, порывы в срок и между сроками (в фигурных скобках) и направление, откуда дует ветер: С - северный, СВ - северо-восточный, В - восточный, ЮВ - юго-восточный, Ю - южный, ЮЗ - юго-западный, З - западный, СЗ - северо-западный.
Видимость - горизонтальная дальность видимости в метрах или километрах. При видимости от 1 до 10 км при отсутствии осадков обычно наблюдается дымка, при ухудшении видимости до 1 км и менее - туман. В сухую погоду видимость может ухудшаться дымом, пылью или мглою.
Явления - указаны атмосферные явления, наблюдавшиеся в срок или в последний час перед сроком; фигурными скобками обозначены явления, наблюдавшиеся между сроками (за 1-3 часа до срока); квадратными скобками обозначены град или гололедные отложения с указанием их диаметра в мм.
Облачность - указаны через наклонную черту общая и нижняя облачность в баллах и высота нижней границы облаков в метрах; квадратными скобками обозначены формы облаков: Ci - перистые, Cs - перисто-слоистые, Cc - перисто-кучевые, Ac - высококучевые, As - высокослоистые, Sc - слоисто-кучевые, Ns - слоисто-дождевые, Cu - кучевые, Cb - кучево-дождевые. Подробнее классификацию облаков см. в Атласе облаков (PDF).
T - Температура воздуха - температура, измеренная на высоте 2 м над землей.
Td - Температура точки росы - температура, при понижении до которой содержащийся в воздухе водяной пар достигнет насыщения.
f - Относительная влажность воздуха - влажноcть воздуха, измеренная на высоте 2 м над землей.
Te - Эффективная температура - температура, которую ощущает одетый по сезону человек в тени. Характеристика душности погоды. При расчете учитывается влияние влажности воздуха и скорости ветра на теплоощущения человека.
Tes - Эффективная температура на солнце - температура, которую ощущает человек, с поправкой на солнечный нагрев. Характеристика знойности погоды. Зависит от высоты солнца над горизонтом, облачности и скорости ветра. Ночью, в пасмурную погоду, а также при ветре 12 м/с и более поправка равна нулю.
P - Атмосферное давление - приведенное к уровню моря атмосферное давление.
Po - Атмосферное давление - измеренное на уровне метеостанции атмосферное давление.
Tmin - Минимальная температура - минимум температуры воздуха на высоте 2 м над землей.
Tmax - Максимальная температура - максимум температуры воздуха на высоте 2 м над землей.
R - Количество осадков - Количество выпавших осадков за период времени, мм. При наведении курсора мыши на число - период времени, за который выпало указанное количество осадков.
R24 - Количество осадков - Количество выпавших осадков за 24 часа, мм.
S - Снежный покров - Высота снежного покрова, см. При наведении курсора мыши на число - состояние снежного покрова и степень покрытия местности в баллах.